Location: Unspecified
(0.0000°N, 0.0000°E)
Time: 02:46:40
(UTC+00:00)

ISS - Pass Details

Date: 30 December 2024
Orbit: 417 x 426 km, 51.6° (Epoch: 18 March)

Event Time Altitude Azimuth Distance (km) Brightness Sun altitude
Rises 09:03:06 0° 304° (NW) 2,482 -0.3 40.7°
Reaches altitude 10° 09:05:31 10° 290° (WNW) 1,616 -1.1 41.2°
Maximum altitude 09:08:31 24° 234° (SW) 1,006 -1.8 41.8°
Drops below altitude 10° 09:11:34 10° 178° (S) 1,630 -0.3 42.5°
Sets 09:14:01 0° 164° (SSE) 2,510 0.7 43.0°
